sat.trackr.live / text

‹ back to catalog

FOX-1A (AO-85)

NORAD 40967 · 2015-058D

PAYLOAD ACTIVE UNKNOWN

§ Identity

Operator
Country
US
Launch date
2015-10-08
Launch site
AFWTR
Launch vehicle
Mass (kg)
RCS (m²)

Purposes: comms, tech_demo

External: N2YO · Heavens-Above · Gunter

§ Orbital elements

Epoch: 2026-05-24T22:37:09.350112Z

Period
96.59 min
Inclination
64.7766°
Eccentricity
0.0129423
Mean motion
14.90816319 rev/d
Perigee alt
505.1 km
Apogee alt
685.6 km
Semi-major
6,973.5 km
B*
2.6625e-4
RAAN
351.2143°
Arg perigee
65.7254°
Mean anomaly
295.7313°
Rev number
11,010

§ Raw data

FOX-1A (AO-85)1 40967U 15058D   26144.94246933  .00002906  00000+0  26625-3 0  99922 40967  64.7766 351.2143 0129423  65.7254 295.7313 14.90816319110108

JSON: /api/v1/satellites/40967 · /tle

For live sub-satellite position, see the globe view (requires WebGL).

§ Visibility from observer

Set your observer location to see the next 7 days of passes ≥ 10°. The values pass through the URL so the page stays shareable.

No JS? Fill the form by hand. The geolocation button needs JavaScript.

§ Radio — SatNOGS DB

ModeDescriptionDownlinkUplink
DUV DUV TLM (inactive) 145.979 MHz
FM FM Transponder (inactive) 145.980 MHz 435.180 MHz
FM FM Transponder (current) (inactive) 145.979 MHz 435.172 MHz

3 transmitters · refreshed weekly from db.satnogs.org